Regional Weather Roundup
Issued by NWS Northern Indiana

Home | Current Version | Previous Version | Graphics & Text | Print | Product List | Glossary On
Versions: 1 2 3 4 5 6 7 8 9 10 11 12 13 14 15 16 17 18 19 20 21 22 23 24 25 26 27 28 29 30 31 32 33 34 35 36 37 38 39 40 41 42 43 44 45 46 47 48 49 50
000
ASUS43 KIWX 300900
RWRIWX

KIWX WEATHER ROUNDUP
NATIONAL WEATHER SERVICE NORTHERN INDIANA
500 AM EDT THU JUL 30 2015

NOTE: "FAIR" INDICATES FEW OR NO CLOUDS BELOW 12,000 FEET WITH NO
SIGNIFICANT WEATHER AND/OR OBSTRUCTIONS TO VISIBILITY.

* THESE STATIONS ARE NOT UNDER NWS QUALITY CONTROL. THEY ALSO MAY NOT
  REPORT WEATHER SUCH AS PRECIPITATION OR FOG.

INZ001>027-301000-
NORTHERN INDIANA

CITY           SKY/WX    TMP DP  RH WIND       PRES   REMARKS
KNOX*          CLEAR     63  57  82 W7        30.01S
SOUTH BEND     CLEAR     63  58  83 W3        30.01S
GOSHEN         CLEAR     62  57  83 W5        30.00R
MONTICELLO*    CLEAR     63  61  93 CALM      30.03S
WARSAW*        CLEAR     61  57  88 W3        30.01S
ANGOLA*        CLEAR     64  57  77 VRB3      29.99S
FORT WAYNE     PTCLDY    63  59  87 W9        30.01S

$$
INZ028>050-301000-
CENTRAL INDIANA

CITY           SKY/WX    TMP DP  RH WIND       PRES   REMARKS
LAFAYETTE      CLEAR     61  60  97 W3        30.05R
KOKOMO*        CLEAR     63  57  82 W8        30.04R
MUNCIE*        CLEAR     64  59  83 W7        30.03R
INDIANAPOLIS   PTCLDY    67  58  72 NW6       30.04R

$$
MIZ043>046-050>051-056>058-064>065-071>073-077>080-301000-
SOUTHWEST LOWER MICHIGAN

CITY           SKY/WX    TMP DP  RH WIND       PRES   REMARKS
BATTLE CREEK   CLEAR     65  57  75 W6        29.97S
BENTON HARBOR  CLEAR     70  62  76 W9        29.98S
COLDWATER*     CLEAR     60  56  86 W5        29.98S
HILLSDALE*     CLEAR     65  59  79 W7        29.98S
HOLLAND        CLEAR     72  59  63 W8        29.96S
GRAND RAPIDS   CLEAR     66  59  78 SW7       29.95S
KALAMAZOO      CLEAR     67  57  70 W8        29.97S
STURGIS*       CLEAR     63  57  82 CALM      29.99R
THREE RIVERS*  FAIR      66  58  75 W5        29.98S

$$
OHZ001>008-015>018-024>025-301000-
NORTHWEST OHIO

CITY           SKY/WX    TMP DP  RH WIND       PRES   REMARKS
DEFIANCE       CLEAR     64  58  80 SW3       29.98S
FINDLAY        PTCLDY    64  59  83 W6        29.97S
TOLEDO EXPRESS PTCLDY    63  58  83 W8        29.95S
TOLEDO METCALF PTCLDY    66  58  75 W6        29.96S
LIMA           PTCLDY    64  59  83 W5        30.00S

$$
AND FOR LAKE MICHIGAN COASTAL AND OPEN LAKE BUOY OBSERVATIONS

STATION/POSITION TEMP    WIND        PRES    VSBY  WAVE
                 AIR SEA DIR/SP/G                  HT/PER
                 (F)     (DEG/KT/KT) (MB)    (MI)  (FT/S)
MICHIGAN CITY     73     240/ 14/ 15   N/A
BURNS HARBOR      72     250/  9/ 14 1016.9R
SAINT JOSEPH      73     240/  9/ 11 1016.3R
4 MI NW BRIDGMAN  74 74  320/ 14/ 16   N/A           3/ 4
MICHIGAN CITY     74 73  280/ 12/ 16   N/A           3/ 4

$$
&&


USA.gov is the U.S. government's official web portal to all federal, state and local government web resources and services.